Regional Weather Roundup
Issued by NWS New Orleans/Baton Rouge, LA

Home | Current Version | Previous Version | Graphics & Text | Print | Product List | Glossary On
Versions: 1 2 3 4 5 6 7 8 9 10 11 12 13 14 15 16 17 18 19 20 21 22 23 24 25 26 27 28 29 30 31 32 33 34 35 36 37 38 39 40 41 42 43 44 45 46 47 48 49 50
118
ASUS44 KLIX 182107
RWRLIX
NEW ORLEANS REGIONAL WEATHER ROUNDUP
NATIONAL WEATHER SERVICE NEW ORLEANS LA
400 PM CDT SAT APR 18 2015

NOTE: "FAIR" INDICATES FEW OR NO CLOUDS BELOW 12,000 FEET WITH NO
      SIGNIFICANT WEATHER AND/OR OBSTRUCTIONS TO VISIBILITY.
      SKY/WX - SKY CONDITION AND SIGNIFICANT WEATHER.
      TMP - AIR TEMPERATURE.     DP    - DEWPOINT TEMPERATURE.
      RH  - RELATIVE HUMIDITY.   PRES  - PRESSURE.
      HI  - HEAT INDEX.          WCI   - WIND CHILL INDEX.

*  THESE STATIONS ARE NOT NWS OR FAA STATIONS AND ARE NOT UNDER
   NWS QUALITY CONTROL.

LAZ038-040-048-061>063-065>067-069-182200-
SOUTHEAST LOUISIANA

CITY           SKY/WX    TMP DP  RH WIND       PRES   REMARKS
N.O. AUDUBON   NOT AVBL
N.O. INTL ARPT CLOUDY    77  69  76 S8        29.85S
N.O. LAKEFRONT CLOUDY    78  69  73 SE9       29.86S
SLIDELL        CLOUDY    77  71  82 S12       29.86R
BATON ROUGE    CLOUDY    77  67  71 S15       29.84F
BOOTHVILLE     CLOUDY    72  69  90 SE9       29.85F
BELLE CHASSE   LGT RAIN  74  69  85 S3        29.85S
BOGALUSA*        N/A     80  67  63 S10       29.87R
GALLIANO*      CLOUDY    76  71  85 S6        29.85F
NEW ROADS*     CLOUDY    76  68  78 S8        29.84R
GONZALES*        N/A     76  69  78 S8        29.85S
HAMMOND*       CLOUDY    79  68  69 S9        29.87F
HOUMA*         MOSUNNY   75  72  88 SE3       29.86F
PORT FOURCHON* PTCLDY    73  72  94 SE10      29.88R

$$

MSZ070-080>082-182200-
SOUTHERN MISSISSIPPI

CITY           SKY/WX    TMP DP  RH WIND       PRES   REMARKS
MCCOMB         LGT RAIN  74  69  85 S9        29.84F
GULFPORT       CLOUDY    75  70  84 S8        29.86R
BILOXI         PTSUNNY   76  72  87 S10G16    29.86R
PASCAGOULA     CLOUDY    75  70  84 SE12      29.87R
STENNIS ARPT*  PTSUNNY   75  66  73 MISG      29.87R

$$

COASTAL OBSERVATIONS
LAKE AND NEARSHORE STATIONS

STATION/POSITION TIME  TEMP    WIND        PRES    WAVE
                       AIR SEA DIR/SP/G            HT/PER
                 (UTC) (F)     (DEG/KT/KT) (MB)    (FT/S)
PASCAGOULA       2000   74     140/ 10/ 16 1010.5
WAVELAND YACHT   2000   73 73  160/ 13/ 15 1011.1
GRAND ISLE       2000   73 75  140/ 10/ 14 1010.5
SOUTHWEST PASS   2000   71 63  120/ 20/ 22 1011.4
NEW CANAL        2000   78     150/  5/ 11 1011.5
SHELL BEACH      2000   74 76  150/ 15/ 18 1010.7

OFFSHORE STATIONS

STATION/POSITION TIME  TEMP    WIND        PRES    WAVE
                       AIR SEA DIR/SP/G            HT/PER
                 (UTC) (F)     (DEG/KT/KT) (MB)    (FT/S)
64 S DAUPHIN ISL 2050   73 75  130/ 21/ 25 1010.8    2/ 6

$$




USA.gov is the U.S. government's official web portal to all federal, state and local government web resources and services.